GW1169 Weather Reports


Display with metric or nautical units.
time (UTC)temp
F
wind
direction
speed
MPH
gust
MPH
rain 1hr
in
rain 24hr
in
rain mn
in
humidity
%
barometer
mb
20260510230516 68 27 2.0 4.0 0.00 0.00 0.00 39 1013.5
20260510225516 68 32 3.0 7.0 0.00 0.00 0.00 37 1013.7
20260510224536 68 32 2.0 8.0 0.00 0.00 0.00 38 1013.6
20260510223515 68 29 2.0 7.0 0.00 0.00 0.00 37 1013.5
20260510222516 69 15 3.0 9.0 0.00 0.00 0.00 38 1013.6
20260510221516 69 33 3.0 6.0 0.00 0.00 0.00 38 1013.5
20260510220535 69 23 3.0 8.0 0.00 0.00 0.00 38 1013.6
20260510215515 69 11 3.0 9.0 0.00 0.00 0.00 38 1013.6
20260510214515 70 18 2.0 6.0 0.00 0.00 0.00 38 1013.6
20260510213516 70 336 2.0 5.0 0.00 0.00 0.00 40 1013.7
20260510212515 71 6 1.0 5.0 0.00 0.00 0.00 41 1013.8
20260510211515 71 26 2.0 8.0 0.00 0.00 0.00 40 1013.8
20260510210535 70 358 2.0 3.0 0.00 0.00 0.00 40 1014.0
20260510205536 70 339 2.0 4.0 0.00 0.00 0.00 40 1013.9
20260510204515 70 328 2.0 4.0 0.00 0.00 0.00 38 1013.8
20260510203515 70 94 1.0 6.0 0.00 0.00 0.00 36 1013.6
20260510202515 70 19 2.0 9.0 0.00 0.00 0.00 38 1013.7
20260510201515 71 49 1.0 6.0 0.00 0.00 0.00 38 1013.8
20260510200515 70 17 2.0 9.0 0.00 0.00 0.00 38 1013.7
20260510195515 70 7 3.0 7.0 0.00 0.00 0.00 39 1013.7
20260510194515 69 23 2.0 9.0 0.00 0.00 0.00 39 1013.8
20260510193515 69 27 2.0 5.0 0.00 0.00 0.00 40 1013.9
20260510192515 67 360 2.0 6.0 0.00 0.00 0.00 42 1013.9
20260510191515 67 29 3.0 8.0 0.00 0.00 0.00 41 1013.8
20260510190514 68 24 2.0 7.0 0.00 0.00 0.00 42 1013.8
20260510185515 69 16 2.0 7.0 0.00 0.00 0.00 44 1013.7
20260510184555 69 354 3.0 9.0 0.00 0.00 0.00 45 1013.6
20260510183515 69 43 2.0 8.0 0.00 0.00 0.00 43 1013.6
20260510182516 68 12 3.0 8.0 0.00 0.00 0.00 46 1013.5
20260510181516 67 3 3.0 8.0 0.00 0.00 0.00 47 1013.4
20260510180516 66 24 2.0 5.0 0.00 0.00 0.00 49 1013.5
20260510175516 65 28 2.0 5.0 0.00 0.00 0.00 47 1013.6
20260510174516 65 15 2.0 10.0 0.00 0.00 0.00 45 1013.7
20260510173516 66 41 3.0 8.0 0.00 0.00 0.00 45 1013.7
20260510172516 66 23 3.0 12.0 0.00 0.00 0.00 44 1013.9
20260510171516 65 21 3.0 9.0 0.00 0.00 0.00 53 1014.0
20260510170516 64 25 2.0 6.0 0.00 0.00 0.00 53 1014.0
20260510165516 63 23 3.0 7.0 0.00 0.00 0.00 53 1014.0
20260510164516 63 25 2.0 8.0 0.00 0.00 0.00 54 1014.0
20260510163516 63 52 1.0 3.0 0.00 0.00 0.00 53 1014.0
20260510162016 64 34 1.0 3.0 0.00 0.00 0.00 54 1014.2
20260510161516 64 24 3.0 7.0 0.00 0.00 0.00 56 1014.3
20260510160516 62 28 3.0 8.0 0.00 0.00 0.00 55 1014.4
20260510155516 62 43 2.0 4.0 0.00 0.00 0.00 58 1014.3
20260510154516 62 22 2.0 5.0 0.00 0.00 0.00 58 1014.2
20260510153536 62 18 3.0 8.0 0.00 0.00 0.00 59 1013.9
20260510152516 62 23 3.0 8.0 0.00 0.00 0.00 59 1013.7
20260510151536 62 19 4.0 10.0 0.00 0.00 0.00 57 1013.6
20260510150515 62 44 2.0 8.0 0.00 0.00 0.00 58 1013.6
20260510145515 62 37 2.0 10.0 0.00 0.00 0.00 58 1013.6
20260510144515 62 20 2.0 11.0 0.00 0.00 0.00 56 1013.3
20260510143515 62 26 3.0 10.0 0.00 0.00 0.00 54 1013.2
20260510142515 61 27 2.0 6.0 0.00 0.00 0.00 57 1013.0
20260510141535 61 25 3.0 8.0 0.00 0.00 0.00 57 1012.9
20260510140516 61 31 3.0 9.0 0.00 0.00 0.00 59 1012.7
20260510135535 60 23 2.0 5.0 0.00 0.00 0.00 62 1012.9
20260510134536 60 26 2.0 6.0 0.00 0.00 0.00 65 1012.8
20260510133515 59 36 2.0 5.0 0.00 0.00 0.00 67 1012.9
20260510132535 58 28 2.0 6.0 0.00 0.00 0.00 69 1012.8
20260510131515 58 31 1.0 4.0 0.00 0.00 0.00 72 1012.7
20260510130515 57 34 1.0 4.0 0.00 0.00 0.00 73 1012.5
20260510125515 57 19 2.0 4.0 0.00 0.00 0.00 76 1012.4
20260510124535 56 20 2.0 4.0 0.00 0.00 0.00 77 1012.1
20260510123535 55 45 1.0 4.0 0.00 0.00 0.00 79 1011.9
20260510122515 55 24 1.0 3.0 0.00 0.00 0.00 80 1011.8
20260510121515 55 25 1.0 4.0 0.00 0.00 0.00 81 1011.8
20260510120515 54 11 0.0 2.0 0.00 0.00 0.00 83 1011.6
20260510115515 54 340 0.0 2.0 0.00 0.00 0.00 84 1011.4
20260510114514 54 4 1.0 5.0 0.00 0.00 0.00 85 1011.1
20260510113516 54 19 1.0 3.0 0.00 0.00 0.00 88 1010.8
20260510112535 54 23 2.0 4.0 0.00 0.00 0.00 91 1010.4
20260510111517 54 35 1.0 2.0 0.00 0.00 0.00 92 1010.3
20260510110537 54 32 0.0 3.0 0.00 0.00 0.00 92 1010.1
20260510105517 55 15 1.0 4.0 0.00 0.00 0.00 93 1010.0
20260510104516 55 21 1.0 2.0 0.00 0.00 0.00 93 1009.9
20260510103516 55 259 0.0 1.0 0.00 0.00 0.00 92 1009.8
20260510102516 55 0.0 1.0 0.00 0.00 0.00 92 1009.4
20260510101557 55 0.0 1.0 0.00 0.00 0.00 92 1009.5
20260510100516 56 0.0 0.0 0.00 0.00 0.00 92 1009.3
20260510095516 56 259 0.0 2.0 0.00 0.00 0.00 92 1009.5
20260510094516 56 0.0 1.0 0.00 0.00 0.00 92 1009.3
20260510093536 56 259 1.0 2.0 0.00 0.00 0.00 92 1009.2
20260510092536 56 259 0.0 2.0 0.00 0.00 0.00 92 1009.0
20260510091536 57 259 0.0 2.0 0.00 0.00 0.00 92 1008.9
20260510090516 57 259 0.0 1.0 0.00 0.00 0.00 91 1008.7
20260510085516 57 0.0 0.0 0.00 0.00 0.00 91 1008.3
20260510084516 58 0.0 0.0 0.00 0.00 0.00 91 1008.2
20260510083516 58 0.0 0.0 0.00 0.00 0.00 91 1008.1
20260510082516 58 0.0 0.0 0.00 0.00 0.00 92 1008.0
20260510081516 58 0.0 0.0 0.00 0.00 0.00 92 1007.7
20260510080516 59 0.0 2.0 0.00 0.00 0.00 92 1007.6
20260510075515 59 19 0.0 2.0 0.00 0.00 0.00 92 1007.3
20260510074516 59 0.0 0.0 0.00 0.00 0.00 92 1007.3
20260510073515 59 19 0.0 3.0 0.00 0.00 0.00 92 1007.2
20260510072515 59 30 1.0 3.0 0.00 0.00 0.00 92 1007.0
20260510071515 59 26 1.0 3.0 0.00 0.00 0.00 92 1007.0
20260510070516 60 22 0.0 1.0 0.00 0.00 0.00 91 1007.1
20260510065515 60 22 0.0 2.0 0.00 0.00 0.00 91 1007.4
20260510064515 60 22 0.0 2.0 0.00 0.00 0.00 91 1007.2
20260510063515 60 22 1.0 3.0 0.00 0.00 0.00 91 1007.0
20260510062515 60 32 1.0 5.0 0.00 0.00 0.00 91 1007.0
20260510061515 60 31 1.0 3.0 0.00 0.00 0.00 91 1007.1
20260510060515 60 23 2.0 7.0 0.00 0.00 0.00 92 1006.9
20260510055515 60 33 2.0 6.0 0.00 0.00 0.00 92 1006.7
20260510054515 60 24 2.0 5.0 0.00 0.00 0.00 92 1006.7
20260510053515 61 36 2.0 8.0 0.00 0.00 0.00 92 1006.5
20260510052515 61 31 2.0 7.0 0.00 0.00 0.00 92 1006.5
20260510051515 61 26 3.0 8.0 0.00 0.00 0.00 92 1006.4
20260510050515 61 26 2.0 8.0 0.00 0.00 0.00 92 1005.7
20260510045516 61 332 1.0 2.0 0.00 0.00 0.12 92 1005.9
20260510044516 61 211 2.0 4.0 0.00 0.00 0.12 91 1005.8
20260510043516 61 128 1.0 4.0 0.00 0.00 0.11 91 1006.3
20260510042516 61 25 3.0 9.0 0.00 0.00 0.10 91 1006.5
20260510041516 61 32 3.0 9.0 0.00 0.00 0.08 91 1006.3
20260510040516 61 35 3.0 10.0 0.00 0.00 0.08 91 1006.3
20260510035516 61 27 4.0 13.0 0.00 0.00 0.07 90 1006.9
20260510034616 62 28 7.0 15.0 0.00 0.00 0.06 89 1006.9
20260510033516 63 28 9.0 18.0 0.00 0.00 0.04 87 1007.0
20260510032516 64 16 7.0 13.0 0.00 0.00 0.01 83 1007.1
20260510031515 66 9 9.0 20.0 0.00 0.00 0.00 77 1006.7
20260510030515 66 35 1.0 4.0 0.00 0.00 0.00 73 1004.5
20260510025516 66 0.0 0.0 0.00 0.00 0.00 72 1003.9
20260510024516 66 0.0 0.0 0.00 0.00 0.00 72 1003.7
20260510023516 66 0.0 0.0 0.00 0.00 0.00 70 1003.6
20260510022515 67 0.0 0.0 0.00 0.00 0.00 69 1003.5
20260510021515 67 0.0 0.0 0.00 0.00 0.00 69 1003.4
20260510020515 68 0.0 1.0 0.00 0.00 0.00 68 1003.2
20260510015516 69 0.0 0.0 0.00 0.00 0.00 67 1003.0
20260510014515 70 0.0 0.0 0.00 0.00 0.00 66 1002.8
20260510013515 71 0.0 0.0 0.00 0.00 0.00 65 1002.7
20260510012515 72 0.0 0.0 0.00 0.00 0.00 63 1002.7
20260510011515 73 0.0 0.0 0.00 0.00 0.00 60 1002.7
20260510010515 74 0.0 0.0 0.00 0.00 0.00 61 1002.7
20260510005516 75 0.0 0.0 0.00 0.00 0.00 59 1002.6
20260510004515 76 0.0 0.0 0.00 0.00 0.00 57 1002.4
20260510003515 77 0.0 0.0 0.00 0.00 0.00 55 1002.4
20260510002515 77 61 0.0 1.0 0.00 0.00 0.00 52 1002.3
20260510001535 78 0.0 0.0 0.00 0.00 0.00 50 1002.3
20260510000515 78 0.0 0.0 0.00 0.00 0.00 46 1002.2
20260509235515 78 0.0 3.0 0.00 0.00 0.00 45 1002.1
20260509234555 78 262 0.0 3.0 0.00 0.00 0.00 46 1002.1
20260509233517 79 0.0 1.0 0.00 0.00 0.00 46 1002.1
20260509232557 79 267 0.0 2.0 0.00 0.00 0.00 42 1002.0
20260509231516 79 344 0.0 2.0 0.00 0.00 0.00 44 1002.1